This is the latest recevied weather packets stored in our database for station/object KA3RQR. If no packets are shown the sender has not sent any weather packets the latest 1 day(s).
| Time | Temp. | Humidity | Pressure | Rain* | Wind** | Luminosity | Snow |
|---|---|---|---|---|---|---|---|
| 1777993789 | 23.33° C | 49% | 1012.6 hPa | 0 mm | 0.45 m/s, 165° | 75 W/m² | - |
| 1777993486 | 23.33° C | 49% | 1012.7 hPa | 0 mm | 0.89 m/s, 320° | 43 W/m² | - |
| 1777993185 | 23.33° C | 50% | 1012.5 hPa | 0 mm | 1.34 m/s, 134° | 44 W/m² | - |
| 1777992883 | 23.33° C | 50% | 1012.6 hPa | 0 mm | 0.45 m/s, 212° | 44 W/m² | - |
| 1777992582 | 22.78° C | 49% | 1012.5 hPa | 0 mm | 1.34 m/s, 156° | 44 W/m² | - |
| 1777992279 | 22.78° C | 51% | 1012.6 hPa | 0 mm | 0 m/s | 44 W/m² | - |
| 1777991976 | 22.22° C | 52% | 1012.6 hPa | 0 mm | 0.89 m/s, 160° | 44 W/m² | - |
| 1777991674 | 22.22° C | 51% | 1012.6 hPa | 0 mm | 0.45 m/s, 206° | 49 W/m² | - |
| 1777991371 | 22.22° C | 49% | 1012.6 hPa | 0 mm | 2.68 m/s, 133° | 43 W/m² | - |
| 1777991068 | 21.67° C | 52% | 1012.6 hPa | 0 mm | 1.34 m/s, 136° | 63 W/m² | - |
| 1777990765 | 21.67° C | 50% | 1012.5 hPa | 0 mm | 1.79 m/s, 152° | 44 W/m² | - |
| 1777990462 | 21.67° C | 51% | 1012.9 hPa | 0 mm | 0.45 m/s, 159° | 43 W/m² | - |
| 1777990159 | 21.11° C | 52% | 1012.8 hPa | 0 mm | 1.79 m/s, 338° | 42 W/m² | - |
| 1777989856 | 21.11° C | 54% | 1012.8 hPa | 0 mm | 2.24 m/s, 210° | 48 W/m² | - |
| 1777989553 | 20.56° C | 55% | 1012.6 hPa | 0 mm | 1.34 m/s, 271° | 42 W/m² | - |
| 1777989249 | 20.56° C | 55% | 1012.5 hPa | 0 mm | 0.45 m/s, 162° | 42 W/m² | - |
| 1777988945 | 20.56° C | 54% | 1012.7 hPa | 0 mm | 0 m/s | 50 W/m² | - |
| 1777988642 | 20° C | 55% | 1012.7 hPa | 0 mm | 0.89 m/s, 220° | 41 W/m² | - |
| 1777988339 | 20° C | 56% | 1012.7 hPa | 0 mm | 0.89 m/s, 185° | 40 W/m² | - |
| 1777988036 | 19.44° C | 56% | 1012.8 hPa | 0 mm | 2.24 m/s, 143° | 40 W/m² | - |
| 1777987731 | 19.44° C | 57% | 1012.7 hPa | 0 mm | 0 m/s | 39 W/m² | - |
| 1777987429 | 19.44° C | 56% | 1012.6 hPa | 0 mm | 0.45 m/s, 186° | 39 W/m² | - |
| 1777987126 | 19.44° C | 56% | 1012.9 hPa | 0 mm | 1.34 m/s, 125° | 39 W/m² | - |
| 1777986823 | 19.44° C | 57% | 1012.7 hPa | 0 mm | 0.45 m/s, 129° | 38 W/m² | - |
| 1777986521 | 18.89° C | 57% | 1012.9 hPa | 0 mm | 1.34 m/s, 161° | 37 W/m² | - |
* Rain latest hour (hover to see other rain measurements)
** Current wind speed in m/s (hover to see current wind gust speed)